Preview of NWS' New Version of Forecast
This preview is not operational and should not be used for support decisions.

Regional Weather Roundup (RWR)

Issued by National Weather Service (NWS)

                            
000
ASUS43 KTOP 180559
RWRKS 

WEATHER ROUNDUP FOR KANSAS
NATIONAL WEATHER SERVICE GOODLAND KS
100 AM CDT TUE JUN 18 2019

NOTE:  "FAIR" INDICATES FEW OR NO CLOUDS BELOW 12,000 FEET WITH NO
SIGNIFICANT WEATHER AND/OR OBSTRUCTIONS TO VISIBILITY.

KSZ001>006-013>018-027>032-041>047-180700-
NORTHWEST KANSAS
  
CITY           SKY/WX    TMP DP  RH WIND       PRES   REMARKS
GOODLAND       CLOUDY    61  60  97 N8        30.03F                  
6HR MIN TEMP:  60; 6HR MAX TEMP:  70; 6HR PCP:  0.85;                

HAYS           CLEAR     68  60  75 E7        29.97F                  
HILL CITY      CLOUDY    68  62  81 N16G28    30.01R                  
6HR MIN TEMP:  68; 6HR MAX TEMP:  80;                                

RUSSELL        CLEAR     70  57  63 E9        29.95F                  
6HR MIN TEMP:  70; 6HR MAX TEMP:  82;                                

$$

KSZ061>065-074>080-084>089-180700-
SOUTHWEST KANSAS
  
CITY           SKY/WX    TMP DP  RH WIND       PRES   REMARKS
DODGE CITY     TSTM      64  62  93 W21G35    30.04R FOG              
6HR MIN TEMP:  64; 6HR MAX TEMP:  80; 6HR PCP:  0.05;                

GARDEN CITY    RAIN      62  61  96 SE7       30.03F FOG              
6HR MIN TEMP:  61; 6HR MAX TEMP:  78; 6HR PCP:  0.56;                

GREAT BEND     PTCLDY    70  62  76 SE3       29.97S                  
LIBERAL        LGT RAIN  65  61  87 E8        30.03F                  
$$

KSZ066>073-081>083-090>101-180700-
SOUTHEAST KANSAS
  
CITY           SKY/WX    TMP DP  RH WIND       PRES   REMARKS
CHANUTE        CLEAR     70  66  87 E3        29.97S                  
6HR MIN TEMP:  69; 6HR MAX TEMP:  82;                                

COFFEYVILLE    CLEAR     69  67  93 CALM      29.96R                  
6HR MIN TEMP:  69; 6HR MAX TEMP:  81;                                

HUTCHINSON     PTCLDY    71  65  81 SE6       29.95F                  
6HR MIN TEMP:  69; 6HR MAX TEMP:  83;                                

MEDICINE LODGE   N/A     72  65  78 SE3       29.96S                  
NEWTON         CLEAR     70  67  90 SE7       29.98F                  
PARSONS        CLEAR     68  67  96 CALM      29.97S                  
6HR MIN TEMP:  67; 6HR MAX TEMP:  82;                                

WICHITA INTL   MOCLDY    72  65  78 SE3       29.96F                  
6HR MIN TEMP:  71; 6HR MAX TEMP:  84;                                

WICHITA JABRA  CLEAR     70  66  87 SE3       29.96F                  
6HR MIN TEMP:  69; 6HR MAX TEMP:  83;                                

WICHITA MCCONL CLEAR     72  65  76 E5        29.96F                  
WINFIELD       CLEAR     71  65  81 SE6       29.96F                  
6HR MIN TEMP:  69; 6HR MAX TEMP:  82;                                

$$

KSZ007>012-019>026-033>040-048>060-102>105-180700-
NORTHEAST KANSAS
  
CITY           SKY/WX    TMP DP  RH WIND       PRES   REMARKS
CONCORDIA      MOCLDY    70  62  76 CALM      29.96F                  
6HR MIN TEMP:  70; 6HR MAX TEMP:  86;                                

EMPORIA        CLEAR     68  68 100 SE3       29.98S                  
6HR MIN TEMP:  67; 6HR MAX TEMP:  79;                                

LAWRENCE       PTCLDY    67  65  93 CALM      29.98R                  
6HR MIN TEMP:  67; 6HR MAX TEMP:  82;                                

MANHATTAN      CLEAR     66  61  84 CALM      29.96F                  
6HR MIN TEMP:  66; 6HR MAX TEMP:  85;                                

OLATHE IND     CLEAR     68  65  90 SE3       29.99R                  
6HR MIN TEMP:  68; 6HR MAX TEMP:  77;                                

OLATHE EXE     CLEAR     67  66  97 SE5       29.98S                  
6HR MIN TEMP:  67; 6HR MAX TEMP:  77;                                

SALINA         CLEAR     71  62  73 SE7       29.95F                  
6HR MIN TEMP:  70; 6HR MAX TEMP:  85;                                

TOPEKA BILLARD MOCLDY    70  65  84 E3        29.97R                  
6HR MIN TEMP:  69; 6HR MAX TEMP:  84;                                

TOPEKA FORBES  MOCLDY    68  65  90 CALM      29.98R                  
6HR MIN TEMP:  67; 6HR MAX TEMP:  84;                                

$$